TimeMDT,TemperatureF,Dew PointF,Humidity,Sea Level PressureIn,VisibilityMPH,Wind Direction,Wind SpeedMPH,Gust SpeedMPH,PrecipitationIn,Events,Conditions,WindDirDegrees,DateUTC
12:35 AM,41.0,34.7,78,29.98,10.0,West,3.5,-,N/A,,Scattered Clouds,280,2012-10-11 06:35:00
12:55 AM,41.9,35.2,77,29.98,10.0,West,9.2,-,N/A,,Mostly Cloudy,260,2012-10-11 06:55:00
1:15 AM,42.1,35.6,78,29.98,7.0,West,9.2,-,N/A,,Mostly Cloudy,270,2012-10-11 07:15:00
1:35 AM,42.8,35.6,76,29.98,7.0,West,6.9,-,N/A,,Mostly Cloudy,280,2012-10-11 07:35:00
1:55 AM,42.8,35.6,76,29.98,10.0,West,3.5,-,N/A,,Mostly Cloudy,260,2012-10-11 07:55:00
2:15 AM,42.8,35.6,76,29.98,10.0,WSW,8.1,-,N/A,,Overcast,250,2012-10-11 08:15:00
2:35 AM,42.1,35.2,77,29.99,7.0,West,8.1,-,N/A,,Scattered Clouds,260,2012-10-11 08:35:00
2:55 AM,42.8,35.6,76,29.98,7.0,West,10.4,-,N/A,,Clear,260,2012-10-11 08:55:00
3:15 AM,43.0,36.0,76,29.97,7.0,WSW,10.4,-,N/A,,Clear,250,2012-10-11 09:15:00
3:35 AM,42.8,36.1,77,29.98,7.0,WSW,5.8,-,N/A,,Clear,250,2012-10-11 09:35:00
3:55 AM,42.8,36.5,78,29.98,7.0,West,10.4,-,N/A,,Clear,260,2012-10-11 09:55:00
4:15 AM,42.1,36.9,82,29.98,7.0,WSW,10.4,-,N/A,,Clear,250,2012-10-11 10:15:00
4:35 AM,43.0,37.4,81,29.99,7.0,Calm,Calm,-,N/A,,Scattered Clouds,0,2012-10-11 10:35:00
4:55 AM,43.7,37.0,77,29.99,7.0,West,8.1,-,N/A,,Mostly Cloudy,270,2012-10-11 10:55:00
5:15 AM,43.2,37.0,79,30.00,7.0,WSW,9.2,-,N/A,,Scattered Clouds,250,2012-10-11 11:15:00
5:35 AM,42.8,36.9,80,30.00,7.0,West,6.9,-,N/A,,Clear,270,2012-10-11 11:35:00
6:35 AM,43.0,37.4,81,30.02,7.0,Calm,Calm,-,N/A,,Mostly Cloudy,0,2012-10-11 12:35:00
6:55 AM,48.4,38.3,68,30.03,7.0,West,9.2,-,N/A,,Overcast,280,2012-10-11 12:55:00
7:15 AM,44.8,37.4,75,30.04,5.0,Calm,Calm,-,N/A,,Mostly Cloudy,0,2012-10-11 13:15:00
7:35 AM,46.4,38.1,73,30.05,7.0,WSW,4.6,-,N/A,,Clear,250,2012-10-11 13:35:00
7:55 AM,46.8,38.3,72,30.06,7.0,Calm,Calm,-,N/A,,Clear,0,2012-10-11 13:55:00
8:15 AM,52.7,37.6,56,30.08,7.0,NNE,16.1,20.7,N/A,,Clear,30,2012-10-11 14:15:00
8:35 AM,51.4,35.6,55,30.10,10.0,NNE,18.4,24.2,N/A,,Clear,20,2012-10-11 14:35:00
8:55 AM,51.3,35.8,55,30.11,10.0,NNE,18.4,-,N/A,,Clear,20,2012-10-11 14:55:00
9:15 AM,49.8,35.1,57,30.13,10.0,NNE,17.3,23.0,N/A,,Clear,20,2012-10-11 15:15:00
9:35 AM,50.2,34.7,55,30.15,10.0,NE,15.0,-,N/A,,Clear,40,2012-10-11 15:35:00
9:55 AM,50.2,34.2,54,30.15,10.0,NNE,21.9,25.3,N/A,,Clear,30,2012-10-11 15:55:00
10:15 AM,50.0,34.2,55,30.15,10.0,NE,24.2,27.6,N/A,,Clear,40,2012-10-11 16:15:00
10:35 AM,50.9,33.8,52,30.17,10.0,NE,16.1,-,N/A,,Clear,40,2012-10-11 16:35:00
10:55 AM,52.3,34.0,50,30.17,10.0,NE,13.8,-,N/A,,Clear,50,2012-10-11 16:55:00
11:15 AM,53.1,33.8,48,30.17,10.0,ENE,12.7,17.3,N/A,,Clear,60,2012-10-11 17:15:00
11:35 AM,53.8,33.8,47,30.17,10.0,NE,11.5,-,N/A,,Clear,50,2012-10-11 17:35:00
11:55 AM,55.4,33.8,44,30.18,10.0,NE,10.4,17.3,N/A,,Clear,40,2012-10-11 17:55:00
12:15 PM,57.2,33.6,41,30.17,10.0,NE,13.8,-,N/A,,Clear,40,2012-10-11 18:15:00
12:35 PM,58.3,33.3,39,30.18,10.0,ENE,13.8,20.7,N/A,,Clear,60,2012-10-11 18:35:00
12:55 PM,57.9,33.1,39,30.17,10.0,NE,13.8,19.6,N/A,,Clear,50,2012-10-11 18:55:00
1:15 PM,58.6,33.1,38,30.16,10.0,East,10.4,16.1,N/A,,Clear,80,2012-10-11 19:15:00
1:35 PM,59.0,33.4,38,30.16,10.0,ENE,13.8,17.3,N/A,,Clear,60,2012-10-11 19:35:00
1:55 PM,59.2,33.1,37,30.16,10.0,ENE,11.5,-,N/A,,Clear,70,2012-10-11 19:55:00
2:15 PM,59.4,33.6,38,30.15,10.0,NE,10.4,18.4,N/A,,Clear,50,2012-10-11 20:15:00
2:35 PM,59.7,33.3,37,30.16,10.0,NE,13.8,18.4,N/A,,Clear,50,2012-10-11 20:35:00
2:55 PM,58.5,33.4,39,30.16,10.0,ENE,11.5,21.9,N/A,,Clear,70,2012-10-11 20:55:00
3:35 PM,58.3,33.1,39,30.16,10.0,ENE,15.0,-,N/A,,Clear,60,2012-10-11 21:35:00
3:55 PM,58.8,32.4,37,30.16,10.0,NE,16.1,21.9,N/A,,Clear,50,2012-10-11 21:55:00
4:35 PM,56.7,32.4,40,30.19,10.0,NE,15.0,20.7,N/A,,Clear,50,2012-10-11 22:35:00
5:15 PM,54.1,32.2,43,30.20,10.0,NE,12.7,-,N/A,,Clear,50,2012-10-11 23:15:00
5:35 PM,52.3,32.4,47,30.20,10.0,NE,15.0,-,N/A,,Clear,40,2012-10-11 23:35:00
5:55 PM,50.5,32.2,49,30.21,10.0,NE,11.5,-,N/A,,Clear,40,2012-10-11 23:55:00
6:15 PM,48.7,32.2,53,30.23,10.0,NE,12.7,-,N/A,,Clear,40,2012-10-12 00:15:00
6:35 PM,46.8,32.2,57,30.23,10.0,NE,10.4,-,N/A,,Clear,40,2012-10-12 00:35:00
7:15 PM,44.2,32.0,62,30.25,10.0,NE,10.4,-,N/A,,Clear,40,2012-10-12 01:15:00
7:55 PM,41.9,31.6,67,30.26,10.0,NE,10.4,-,N/A,,Clear,40,2012-10-12 01:55:00
8:15 PM,41.5,31.6,68,30.26,10.0,NE,10.4,-,N/A,,Clear,50,2012-10-12 02:15:00
8:55 PM,40.1,31.3,71,30.27,10.0,ENE,11.5,-,N/A,,Clear,70,2012-10-12 02:55:00
9:15 PM,39.6,31.1,72,30.28,10.0,East,10.4,-,N/A,,Clear,80,2012-10-12 03:15:00
9:35 PM,39.2,31.1,73,30.28,10.0,ENE,11.5,-,N/A,,Clear,70,2012-10-12 03:35:00
9:55 PM,38.3,30.9,75,30.29,10.0,East,10.4,-,N/A,,Clear,80,2012-10-12 03:55:00
10:15 PM,37.2,30.7,77,30.29,10.0,East,8.1,-,N/A,,Clear,90,2012-10-12 04:15:00
10:55 PM,34.9,29.8,82,30.29,10.0,East,8.1,-,N/A,,Clear,90,2012-10-12 04:55:00
11:15 PM,35.1,29.8,81,30.28,10.0,East,9.2,-,N/A,,Clear,90,2012-10-12 05:15:00
11:35 PM,34.7,29.7,82,30.28,10.0,East,6.9,-,N/A,,Clear,90,2012-10-12 05:35:00
11:55 PM,34.7,29.3,81,30.28,10.0,East,9.2,-,N/A,,Clear,100,2012-10-12 05:55:00